Ozark, AL

9:51 PM CDT on May 22, 2017 (GMT -0500)
Cairns Army Air Field

Weather History for KOZR - March, 2015

Change the Weather History Date:

Saturday, March 14, 2015

  Actual Average Record
Temperature  
Mean Temperature 70 °F -  
Max Temperature 79 °F 67 °F 84 °F (2016)
Min Temperature 60 °F 46 °F 33 °F (1998)
Cooling Degree Days 4    
Growing Degree Days 20 (Base 50)    
Moisture  
Dew Point 59 °F    
Average Humidity 80    
Maximum Humidity 94    
Minimum Humidity 37    
Precipitation  
Precipitation 0.00 in - - ()
Sea Level Pressure  
Sea Level Pressure 30.06 in    
Wind  
Wind Speed 8 mph (South)    
Max Wind Speed 14 mph    
Max Gust Speed -    
Visibility 10 miles    
Events      
Averages and records for this station are not official NWS values.
T = Trace of Precipitation, MM = Missing Value Source: NWS Daily Summary

Daily Weather History Graph

Daily Weather History Graph

Search for Another Location

Airport or City:

Trip Planner

Search our weather history database for the weather conditions in past years. The results will help you decide how hot, cold, wet, or windy it might be!

Date:

Astronomy

Mar. 14, 2015 Rise Set
Actual Time 6:54 AM CDT 6:50 PM CDT
Civil Twilight 6:30 AM CDT 7:14 PM CDT
Nautical Twilight 6:02 AM CDT 7:42 PM CDT
Astronomical Twilight 5:33 AM CDT 8:10 PM CDT
Moon 2:04 AM CDT (3/14) 12:55 PM CDT (3/14)
Length of Visible Light 12h 44m
Length of Day
11h 55m
Last Quarter, 40% of the Moon is Illuminated
Mar 14
Last Quarter
Mar 20
New
Mar 27
First Quarter
Apr 4
Full
Apr 11
Last Quarter

Hourly Weather History & Observations

Time (CDT) Temp. Dew Point Humidity Pressure Visibility Wind Dir Wind Speed Gust Speed Precip Events Conditions
12:04 AM 60.8 °F 57.2 °F 88% 30.05 in 10.0 mi ENE 12.7 mph - N/A   Overcast
12:58 AM 60.1 °F 57.9 °F 93% 30.06 in 10.0 mi East 8.1 mph - 0.00 in   Overcast
1:03 AM 60.8 °F 57.2 °F 88% 30.05 in 10.0 mi East 6.9 mph - N/A   Overcast
1:13 AM 60.8 °F 59.0 °F 94% 30.05 in 10.0 mi East 8.1 mph - N/A   Overcast
1:33 AM 60.8 °F 59.0 °F 94% 30.05 in 10.0 mi East 8.1 mph - N/A   Overcast
1:53 AM 60.8 °F 59.0 °F 94% 30.04 in 10.0 mi ESE 9.2 mph - N/A   Overcast
1:58 AM 61.3 °F 58.8 °F 91% 30.05 in 10.0 mi East 8.1 mph - N/A   Overcast
2:15 AM 60.8 °F 59.0 °F 94% 30.04 in 10.0 mi East 5.8 mph - N/A   Light Drizzle
2:25 AM 60.8 °F 59.0 °F 94% 30.04 in 10.0 mi East 5.8 mph - N/A   Overcast
2:35 AM 60.8 °F 59.0 °F 94% 30.04 in 8.0 mi East 6.9 mph - N/A   Light Drizzle
2:45 AM 62.6 °F 59.0 °F 88% 30.03 in 8.0 mi East 6.9 mph - N/A   Overcast
2:47 AM 62.6 °F 59.0 °F 88% 30.03 in 8.0 mi East 5.8 mph - N/A   Overcast
2:58 AM 61.7 °F 59.2 °F 91% 30.04 in 8.0 mi East 6.9 mph - 0.00 in   Overcast
3:08 AM 62.6 °F 59.0 °F 88% 30.02 in 6.0 mi East 6.9 mph - N/A   Overcast
3:58 AM 62.8 °F 60.4 °F 92% 30.03 in 9.0 mi SSE 5.8 mph - N/A   Overcast
4:08 AM 62.6 °F 60.8 °F 94% 30.02 in 9.0 mi SSE 3.5 mph - N/A   Overcast
4:58 AM 63.7 °F 61.3 °F 92% 30.04 in 9.0 mi SSE 3.5 mph - N/A   Overcast
5:53 AM 64.4 °F 62.6 °F 94% 30.05 in 10.0 mi SSE 6.9 mph - N/A   Overcast
5:58 AM 64.8 °F 62.6 °F 93% 30.06 in 10.0 mi SSE 6.9 mph - N/A   Overcast
6:13 AM 64.4 °F 62.6 °F 94% 30.05 in 10.0 mi South 8.1 mph - N/A   Overcast
6:28 AM 64.4 °F 62.6 °F 94% 30.05 in 10.0 mi South 6.9 mph - N/A   Overcast
6:38 AM 64.4 °F 62.6 °F 94% 30.05 in 10.0 mi South 5.8 mph - N/A   Overcast
6:43 AM 64.4 °F 62.6 °F 94% 30.06 in 10.0 mi South 5.8 mph - N/A   Overcast
6:58 AM 64.6 °F 62.2 °F 92% 30.06 in 10.0 mi South 5.8 mph - N/A   Overcast
7:08 AM 64.4 °F 62.6 °F 94% 30.06 in 10.0 mi South 4.6 mph - N/A   Overcast
7:18 AM 64.4 °F 62.6 °F 94% 30.06 in 10.0 mi South 5.8 mph - N/A   Overcast
7:28 AM 64.4 °F 62.6 °F 94% 30.06 in 10.0 mi South 5.8 mph - N/A   Overcast
7:58 AM 64.6 °F 61.9 °F 91% 30.08 in 10.0 mi South 5.8 mph - N/A   Mostly Cloudy
8:13 AM 64.4 °F 62.6 °F 94% 30.07 in 10.0 mi South 6.9 mph - N/A   Mostly Cloudy
8:58 AM 66.6 °F 61.9 °F 85% 30.09 in 10.0 mi South 10.4 mph - N/A   Mostly Cloudy
9:38 AM 68.0 °F 60.8 °F 78% 30.09 in 10.0 mi SSW 8.1 mph - N/A   Scattered Clouds
9:43 AM 68.0 °F 60.8 °F 78% 30.09 in 10.0 mi SW 8.1 mph - N/A   Mostly Cloudy
9:53 AM 68.0 °F 60.8 °F 78% 30.09 in 10.0 mi SW 10.4 mph - N/A   Scattered Clouds
9:58 AM 68.4 °F 61.2 °F 78% 30.09 in 10.0 mi SW 10.4 mph - N/A   Scattered Clouds
10:03 AM 69.8 °F 60.8 °F 73% 30.09 in 10.0 mi SSW 9.2 mph - N/A   Mostly Cloudy
10:13 AM 69.8 °F 60.8 °F 73% 30.08 in 10.0 mi SSW 10.4 mph - N/A   Mostly Cloudy
10:33 AM 71.6 °F 60.8 °F 69% 30.08 in 10.0 mi SW 12.7 mph - N/A   Scattered Clouds
10:58 AM 71.8 °F 60.6 °F 68% 30.09 in 10.0 mi SSW 9.2 mph - N/A   Partly Cloudy
11:58 AM 75.0 °F 59.4 °F 58% 30.09 in 10.0 mi SSW 10.4 mph - N/A   Clear
12:58 PM 75.9 °F 57.6 °F 53% 30.07 in 10.0 mi WSW 11.5 mph - N/A   Partly Cloudy
1:58 PM 77.9 °F 55.8 °F 46% 30.04 in 10.0 mi SSW 10.4 mph - N/A   Clear
2:58 PM 78.6 °F 55.4 °F 45% 30.03 in 10.0 mi WSW 11.5 mph - N/A   Clear
3:58 PM 79.5 °F 53.1 °F 40% 30.02 in 10.0 mi West 10.4 mph - N/A   Clear
4:58 PM 79.0 °F 50.5 °F 37% 30.02 in 10.0 mi WSW 13.8 mph - N/A   Clear
5:58 PM 77.4 °F 51.8 °F 41% 30.03 in 10.0 mi WSW 10.4 mph - N/A   Clear
6:58 PM 70.7 °F 51.8 °F 51% 30.04 in 10.0 mi WSW 5.8 mph - N/A   Clear
7:58 PM 69.4 °F 52.2 °F 54% 30.06 in 10.0 mi WSW 4.6 mph - N/A   Clear
8:58 PM 67.6 °F 52.5 °F 58% 30.09 in 10.0 mi SW 2.3 mph - N/A   Clear
9:58 PM 63.9 °F 54.1 °F 71% 30.12 in 10.0 mi WSW 5.8 mph - N/A   Clear
10:58 PM 63.0 °F 54.7 °F 74% 30.12 in 10.0 mi WNW 5.8 mph - N/A   Clear
11:58 PM 61.7 °F 54.9 °F 78% 30.12 in 10.0 mi WNW 4.6 mph - N/A   Clear